Flight Track Log - Related Links

Times and Time Zones

All times are in EDT time to prevent confusion due to time zone crossing. See the EJA982 flight status page for this flight to view local times or setup timezone preferences in your user account.

Time Position Orientation Groundspeed Altitude Reporting Facility
EDT Latitude Longitude Course Direction KTS MPH feet Rate Location/Type
Tue 04:06:01 PM 43.5850 -116.2989 105° East 192 221 6,300  Level Salt Lake Center
Tue 04:07:02 PM 43.5486 -116.3650 233° Southwest 287 330 8,700 2,293 Climbing Salt Lake Center
Tue 04:08:04 PM 43.5033 -116.2833 127° Southeast 318 366 11,000 2,244 Climbing Salt Lake Center
Tue 04:09:05 PM 43.5064 -116.1361 88° East 363 418 13,300 2,557 Climbing Salt Lake Center
Tue 04:10:06 PM 43.5100 -115.9783 88° East 392 451 16,200 2,557 Climbing Salt Lake Center
Tue 04:11:00 PM 43.3517 -115.1418 105° East  Level FlightAware Approximate
Tue 04:11:07 PM 43.4942 -115.8294 98° East 420 483 18,500  Level Salt Lake Center
Tue 04:12:09 PM 43.4606 -115.6719 106° East 431 496 20,800 2,049 Climbing Salt Lake Center
Tue 04:13:10 PM 43.4325 -115.5128 104° East 448 516 22,700 1,918 Climbing Salt Lake Center
Tue 04:14:11 PM 43.3969 -115.3206 104° East 468 539 24,700 1,756 Climbing Salt Lake Center
Tue 04:15:13 PM 43.3661 -115.1492 104° East 481 554 26,300 1,659 Climbing Salt Lake Center
Tue 04:16:14 PM 43.3272 -114.9389 104° East 507 583 28,100 1,475 Climbing Salt Lake Center
Tue 04:17:15 PM 43.3197 -114.7489 93° East 524 603 29,300 1,220 Climbing Salt Lake Center
Tue 04:18:17 PM 43.3239 -114.5525 88° East 539 620 30,600 1,463 Climbing Salt Lake Center
Tue 04:19:18 PM 43.3303 -114.3208 88° East 544 626 32,300 1,672 Climbing Salt Lake Center
Tue 04:20:19 PM 43.3333 -114.1200 89° East 552 635 34,000 1,918 Climbing Salt Lake Center
Tue 04:21:20 PM 43.3386 -113.8911 88° East 537 618 36,200 1,805 Climbing Salt Lake Center
Tue 04:22:22 PM 43.3406 -113.6853 89° East 532 612 37,700 1,171 Climbing Salt Lake Center
Tue 04:23:23 PM 43.3439 -113.4914 89° East 532 612 38,600 689 Climbing Salt Lake Center
Tue 04:24:24 PM 43.3450 -113.2969 89° East 534 615 39,100 1,024 Climbing Salt Lake Center
Tue 04:25:26 PM 43.3483 -113.0683 89° East 537 618 40,700 927 Climbing Salt Lake Center
Tue 04:26:27 PM 43.3500 -112.8781 89° East 525 604 41,000 148 Climbing Salt Lake Center
Tue 04:27:28 PM 43.3519 -112.6497 89° East 535 616 41,000  Level Salt Lake Center
Tue 04:28:29 PM 43.3525 -112.4497 90° East 546 628 41,000  Level Salt Lake Center
Tue 04:29:31 PM 43.3539 -112.2444 89° East 560 644 41,000  Level Salt Lake Center
Tue 04:30:32 PM 43.3542 -112.0031 90° East 567 652 41,000  Level Salt Lake Center
Tue 04:31:33 PM 43.3533 -111.7978 90° East 565 650 41,000  Level Salt Lake Center
Tue 04:32:35 PM 43.3536 -111.5583 90° East 564 649 41,000  Level Salt Lake Center
Tue 04:33:36 PM 43.3522 -111.3558 90° East 560 644 41,000  Level Salt Lake Center
Tue 04:34:38 PM 43.3519 -111.1128 90° East 566 651 41,000  Level Salt Lake Center
Tue 04:35:39 PM 43.3497 -110.9083 91° East 563 648 41,000  Level Salt Lake Center
Tue 04:36:40 PM 43.3475 -110.7036 91° East 563 648 41,000  Level Salt Lake Center
Tue 04:37:42 PM 43.3447 -110.4619 91° East 563 648 41,000  Level Salt Lake Center
Tue 04:38:43 PM 43.3417 -110.2572 91° East 562 647 41,000  Level Salt Lake Center
Tue 04:39:44 PM 43.3386 -110.0164 91° East 564 649 41,000  Level Salt Lake Center
Tue 04:40:46 PM 43.3344 -109.8119 92° East 562 647 41,000  Level Salt Lake Center
Tue 04:41:47 PM 43.3303 -109.6053 92° East 564 649 41,000  Level Salt Lake Center
Tue 04:42:49 PM 43.3247 -109.3617 92° East 572 658 41,000  Level Salt Lake Center
Tue 04:43:50 PM 43.3197 -109.1544 92° East 570 656 41,000  Level Salt Lake Center
Tue 04:44:51 PM 43.3131 -108.9131 92° East 568 654 41,000  Level Salt Lake Center
Tue 04:45:53 PM 43.3075 -108.7053 92° East 571 657 41,000  Level Salt Lake Center
Tue 04:46:54 PM 43.3022 -108.5000 92° East 565 650 41,000  Level Salt Lake Center
Tue 04:47:55 PM 43.2939 -108.2606 93° East 564 649 41,000  Level Salt Lake Center
Tue 04:48:57 PM 43.2872 -108.0547 92° East 566 651 41,000  Level Salt Lake Center
Tue 04:49:58 PM 43.2789 -107.8164 93° East 563 648 41,000  Level Salt Lake Center
Tue 04:51:00 PM 43.2711 -107.6094 93° East 567 652 41,000  Level Salt Lake Center
Tue 04:52:01 PM 43.2622 -107.4022 93° East 569 655 41,000  Level Salt Lake Center
Tue 04:53:02 PM 43.2528 -107.1586 93° East 575 662 41,000  Level Salt Lake Center
Tue 04:54:04 PM 43.2439 -106.9231 93° East 575 662 41,000  Level Salt Lake Center
Tue 04:55:05 PM 43.2356 -106.7144 93° East 573 659 41,000  Level Salt Lake Center
Tue 04:55:29 PM 43.2317 -106.6447 94° East 570 656 41,000  Level Denver Center
Tue 04:56:31 PM 43.2200 -106.4025 94° East 573 659 41,000  Level Denver Center
Tue 04:57:33 PM 43.2092 -106.1947 94° East 572 658 41,000  Level Denver Center
Tue 04:58:35 PM 43.1969 -105.9503 94° East 574 661 41,000  Level Denver Center
Tue 04:59:36 PM 43.1881 -105.7758 94° East 575 662 41,000  Level Denver Center
Tue 05:00:38 PM 43.1733 -105.4969 94° East 574 661 41,000  Level Denver Center
Tue 05:01:40 PM 43.1603 -105.2875 95° East 575 662 41,000  Level Denver Center
Tue 05:02:42 PM 43.1486 -105.0783 94° East 574 661 41,000  Level Denver Center
Tue 05:03:43 PM 43.1339 -104.8342 95° East 574 661 41,000  Level Denver Center
Tue 05:04:45 PM 43.1203 -104.6244 95° East 574 661 41,000  Level Denver Center
Tue 05:05:47 PM 43.1047 -104.3789 95° East 575 662 41,000  Level Denver Center
Tue 05:06:49 PM 43.0897 -104.1675 95° East 578 665 41,000  Level Denver Center
Tue 05:07:50 PM 43.0750 -103.9542 95° East 584 672 41,000  Level Denver Center
Tue 05:08:52 PM 43.0575 -103.7094 96° East 579 666 41,000  Level Denver Center
Tue 05:09:54 PM 43.0417 -103.5011 96° East 576 663 41,000  Level Denver Center
Tue 05:10:56 PM 43.0233 -103.2586 96° East 575 662 41,000  Level Denver Center
Tue 05:11:58 PM 43.0069 -103.0528 96° East 571 657 41,000  Level Denver Center
Tue 05:12:59 PM 42.9881 -102.8114 96° East 573 659 41,000  Level Denver Center
Tue 05:14:01 PM 42.9711 -102.6064 96° East 569 655 41,000  Level Denver Center
Tue 05:15:03 PM 42.9556 -102.4028 96° East 565 650 41,000  Level Denver Center
Tue 05:16:05 PM 42.9344 -102.1636 97° East 568 654 41,000  Level Denver Center
Tue 05:17:06 PM 42.9161 -101.9589 97° East 570 656 41,000  Level Denver Center
Tue 05:18:08 PM 42.8958 -101.7189 96° East 566 651 41,000  Level Denver Center
Tue 05:19:10 PM 42.8769 -101.5139 97° East 568 654 41,000  Level Denver Center
Tue 05:20:12 PM 42.8553 -101.2869 97° East 570 656 41,000  Level Denver Center
Tue 05:21:14 PM 42.8353 -101.0736 97° East 570 656 41,000  Level Denver Center
Tue 05:22:15 PM 42.8153 -100.8617 97° East 569 655 41,000  Level Denver Center
Tue 05:23:17 PM 42.7939 -100.6489 98° East 568 654 41,000  Level Denver Center
Tue 05:24:31 PM 42.7728 -100.4383 98° East 565 650 41,000  Level Denver Center
Tue 05:25:45 PM 42.7419 -100.1369 98° East 572 658 41,000  Level Denver Center
Tue 05:26:48 PM 42.7147 -99.8797 98° East 575 662 41,000  Level Denver Center
Tue 05:27:49 PM 42.6922 -99.6681 98° East 571 657 41,000  Level Denver Center
Tue 05:28:20 PM 42.6803 -99.5594 98° East 569 655 41,000  Level Minneapolis Center
Tue 05:29:33 PM 42.6567 -99.3450 98° East 571 657 41,000  Level Minneapolis Center
Tue 05:30:35 PM 42.6283 -99.0875 98° East 573 659 41,000  Level Minneapolis Center
Tue 05:31:37 PM 42.6092 -98.9147 99° East 575 662 41,000  Level Minneapolis Center
Tue 05:32:39 PM 42.5783 -98.6586 99° East 573 659 41,000  Level Minneapolis Center
Tue 05:33:41 PM 42.5533 -98.4458 99° East 572 658 41,000  Level Minneapolis Center
Tue 05:34:42 PM 42.5225 -98.1897 99° East 572 658 41,000  Level Minneapolis Center
Tue 05:35:44 PM 42.4964 -97.9803 100° East 565 650 41,000  Level Minneapolis Center
Tue 05:36:46 PM 42.4744 -97.7983 99° East 556 640 41,000  Level Minneapolis Center
Tue 05:37:47 PM 42.4531 -97.6339 100° East 555 639 41,000  Level Minneapolis Center
Tue 05:39:01 PM 42.4172 -97.3475 100° East 551 634 41,000  Level Minneapolis Center
Tue 05:40:03 PM 42.3856 -97.1044 100° East 548 631 41,000  Level Minneapolis Center
Tue 05:41:05 PM 42.3583 -96.9011 100° East 548 631 41,000  Level Minneapolis Center
Tue 05:42:07 PM 42.3306 -96.6994 100° East 547 629 41,000  Level Minneapolis Center
Tue 05:43:09 PM 42.3033 -96.4983 100° East 546 628 41,000  Level Minneapolis Center
Tue 05:44:10 PM 42.2750 -96.2969 101° East 543 625 41,000  Level Minneapolis Center
Tue 05:45:12 PM 42.2472 -96.0961 101° East 542 624 41,000  Level Minneapolis Center
Tue 05:46:14 PM 42.2189 -95.8967 101° East 540 621 41,000  Level Minneapolis Center
Tue 05:47:16 PM 42.1850 -95.6589 101° East 537 618 41,000  Level Minneapolis Center
Tue 05:48:18 PM 42.1547 -95.4581 101° East 540 621 41,000  Level Minneapolis Center
Tue 05:49:19 PM 42.1269 -95.2644 101° East 529 609 41,000  Level Minneapolis Center
Tue 05:50:21 PM 42.0972 -95.0675 101° East 531 611 41,000  Level Minneapolis Center
Tue 05:51:23 PM 42.0661 -94.8703 102° East 537 618 41,000  Level Minneapolis Center
Tue 05:52:25 PM 42.0353 -94.6744 102° East 534 615 41,000  Level Minneapolis Center
Tue 05:53:26 PM 42.0050 -94.4789 102° East 533 613 41,000  Level Minneapolis Center
Tue 05:54:28 PM 41.9731 -94.2828 102° East 536 617 41,000  Level Minneapolis Center
Tue 05:55:42 PM 41.9364 -94.0469 102° East 537 618 41,000  Level Minneapolis Center
Tue 05:56:44 PM 41.9011 -93.8269 102° East 534 615 41,000  Level Minneapolis Center
Tue 05:57:45 PM 41.8761 -93.6719 102° East 534 615 41,000  Level Minneapolis Center
Tue 05:58:47 PM 41.8383 -93.4400 102° East 535 616 41,000  Level Minneapolis Center
Tue 05:59:49 PM 41.8058 -93.2483 103° East 534 615 41,000 -864 Level Minneapolis Center
Tue 06:00:52 PM 41.7692 -93.0175 102° East 532 612 39,200 -1,632 Descending Minneapolis Center
Tue 06:01:54 PM 41.7381 -92.8283 102° East 528 608 37,600 -1,512 Descending Minneapolis Center
Tue 06:02:55 PM 41.7044 -92.6197 102° East 529 609 36,100 -1,426 Descending Minneapolis Center
Tue 06:03:35 PM 41.6853 -92.5019 102° East 535 616 35,200 -1,118 Descending Chicago Center
Tue 06:04:37 PM 41.6531 -92.3097 103° East 536 617 34,200 -1,008 Descending Chicago Center
Tue 06:05:40 PM 41.6200 -92.1175 103° East 538 619 33,100 -1,392 Descending Chicago Center
Tue 06:06:42 PM 41.5817 -91.8911 103° East 531 611 31,300 -1,597 Descending Chicago Center
Tue 06:07:44 PM 41.5478 -91.6981 103° East 536 617 29,800 -1,161 Descending Chicago Center
Tue 06:08:46 PM 41.5144 -91.5083 103° East 534 615 28,900 -968 Descending Chicago Center
Tue 06:09:48 PM 41.4819 -91.3206 103° East 510 587 27,800 -1,113 Descending Chicago Center
Tue 06:10:50 PM 41.4489 -91.1394 104° East 504 580 26,600 -1,306 Descending Chicago Center
Tue 06:11:52 PM 41.4167 -90.9581 103° East 503 579 25,100 -1,645 Descending Chicago Center
Tue 06:12:54 PM 41.3783 -90.7447 103° East 495 570 23,200 -1,887 Descending Chicago Center
Tue 06:13:56 PM 41.3461 -90.5753 104° East 474 545 21,200 -2,129 Descending Chicago Center
Tue 06:14:58 PM 41.3158 -90.4100 104° East 461 531 18,800 -2,226 Descending Chicago Center
Tue 06:16:00 PM 41.2853 -90.2492 104° East 451 519 16,600 -1,872 Descending Chicago Center
Tue 06:17:03 PM 41.2556 -90.0892 104° East 446 513 14,900 -816 Descending Chicago Center
Tue 06:18:05 PM 41.2272 -89.9350 104° East 435 501 14,900 48 Level Chicago Center
Tue 06:19:07 PM 41.1989 -89.7869 104° East 420 483 15,000 48 Climbing Chicago Center
Tue 06:20:09 PM 41.1639 -89.6050 104° East 420 483 15,000 -48 Level Chicago Center
Tue 06:21:11 PM 41.1714 -89.4458 86° East 431 496 14,900 -726 Descending Chicago Center
Tue 06:22:13 PM 41.2139 -89.3031 68° East 418 481 13,500 -1,790 Descending Chicago Center
Tue 06:23:15 PM 41.2558 -89.1792 66° East 384 442 11,200 -1,887 Descending Chicago Center
Tue 06:24:17 PM 41.2961 -89.0569 66° East 366 421 9,600 -1,597 Descending Chicago Center
Tue 06:25:19 PM 41.3400 -88.9319 65° Northeast 315 362 7,900 -1,306 Descending Chicago Center
Tue 06:26:21 PM 41.3744 -88.8308 66° East 303 349 6,900 -823 Descending Chicago Center
Tue 06:27:23 PM 41.4078 -88.7319 66° East 297 342 6,200 -432 Descending Chicago Center
Tue 06:28:26 PM 41.4389 -88.6347 67° East 289 333 6,000 -96 Descending Chicago Center
Tue 06:29:28 PM 41.4608 -88.5281 75° East 296 341 6,000  Level Chicago Center
Tue 06:30:30 PM 41.4881 -88.4025 74° East 295 339 6,000  Level Chicago Center
Tue 06:31:32 PM 41.5097 -88.3006 74° East 287 330 6,000  Level Chicago Center
Tue 06:32:34 PM 41.5322 -88.1975 74° East 287 330 6,000 -387 Level Chicago Center
Tue 06:33:36 PM 41.5550 -88.0953 73° East 285 328 5,200 -484 Descending Chicago Center
Tue 06:34:38 PM 41.5778 -87.9897 74° East 291 335 5,000 -97 Descending Chicago Center
Tue 06:35:40 PM 41.5981 -87.8900 75° East 284 327 5,000  Level Chicago Center
Tue 06:36:43 PM 41.6094 -87.7900 81° East 274 315 5,000 -145 Level Chicago Center
Tue 06:37:44 PM 41.6181 -87.6856 84° East 259 298 4,700 -912 Descending Chicago Center
Tue 06:38:48 PM 41.6667 -87.6333 39° Northeast 236 272 3,100 -1,065 Descending Chicago TRACON
Tue 06:39:48 PM 41.7347 -87.6222 North 238 274 2,500 -333 Descending Chicago Center
Tue 06:40:54 PM 41.8000 -87.6333 353° North 181 208 2,400 -350 Descending Chicago TRACON
Tue 06:41:48 PM 41.8167 -87.6833 294° West 162 186 1,800 -632 Descending Chicago TRACON
Tue 06:42:48 PM 41.8167 -87.7167 270° West 120 138 1,200 -600 Descending Chicago TRACON

Login

Don't have an account? Register now (free) for customized features, flight alerts, and more!